Regional Weather Roundup
Issued by NWS

Home | Current Version | Previous Version | Graphics & Text | Print | Product List | Glossary On
Versions: 1 2 3 4 5 6 7 8 9 10 11 12 13 14 15 16 17 18 19 20 21 22 23 24 25 26 27 28 29 30 31 32 33 34 35 36 37 38 39 40 41 42 43 44 45 46 47 48 49 50
000
ASUS45 KSLC 241110
RWRUT

UTAH REGIONAL WEATHER ROUNDUP
NATIONAL WEATHER SERVICE SALT LAKE CITY UT
500 AM MDT THU JUL 24 2014

UTZ001>011-023>025-241200-

NORTHERN UTAH

CITY           SKY/WX    TMP DP  RH WIND       PRES   REMARKS
HILL AFB       MOCLDY    80  46  29 S14       30.03R
LOGAN          NOT AVBL
OGDEN          PTCLDY    78  45  30 SW6       29.99R
PROVO AIRPORT  CLOUDY    73  55  53 E9        30.07S
SALT LAKE CITY CLOUDY    86  43  22 SW15      29.99R
VERNAL         CLOUDY    81  42  25 W9G32     30.16R
WENDOVER       PTCLDY    81  30  16 N15       30.01S
HEBER CITY     CLOUDY    64  46  52 CALM      30.15S
WEST JORDAN    CLEAR     88  52  29 S17G29    30.03R

$$

UTZ012>022-026-027-241200-

SOUTHERN UTAH

CITY           SKY/WX    TMP DP  RH WIND       PRES   REMARKS
BRYCE CANYON   PTCLDY    61  43  51 W6        30.38S
CEDAR CITY     MOCLDY    71  31  22 SW7       30.17R
MILFORD        MOCLDY    77  35  21 SW13      30.09S
MOAB/CYNLANDS  CLEAR     80  45  28 W5        30.12R
PRICE          CLOUDY    74  47  38 E12       30.23S
ST GEORGE      CLOUDY    90  37  15 E10       29.95F
KANAB            N/A     72  37  28 N7        30.19R

$$

REGIONAL REPORTS     COLORADO/ARIZONA

CITY           SKY/WX    TMP DP  RH WIND       PRES   REMARKS
CRAIG, CO      MOCLDY    54  50  86 CALM      30.25F
GRAND JUNCTION PTCLDY    82  48  30 SE16      30.15R
RIFLE          PTCLDY    67  45  45 CALM      30.23S
MONTROSE       MOCLDY    71  51  49 SE9       30.29R
CORTEZ         CLEAR     74  49  41 VRB7G16   30.30R
PAGE, AZ       MOCLDY    85  50  29 W3        30.11S
GRAND CANYON   CLOUDY    67  49  52 CALM      30.32F
KINGMAN        CLEAR     80  30  16 NW3       30.02S
FLAGSTAFF      MOCLDY    63  50  62 CALM      30.37S

$$

REGIONAL REPORTS    NEVADA/IDAHO/WYOMING

CITY           SKY/WX    TMP DP  RH WIND       PRES   REMARKS
LAS VEGAS, NV  PTCLDY    93  28  10 S15       29.82S
ELY            CLEAR     60  23  24 S7        30.19S
ELKO           CLEAR     56  29  35 W5        30.14R
POCATELLO, ID  CLEAR     69  35  28 SW13      30.04R
BURLEY         CLEAR     66  36  32 W15       30.05R
EVANSTON, WY   CLEAR     66  41  40 SW14      30.22S
ROCK SPRINGS   PTCLDY    69  35  28 SW10      30.21S

$$


USA.gov is the U.S. government's official web portal to all federal, state and local government web resources and services.